Regional Weather Roundup
Issued by NWS Portland, ME

Home | Current Version | Previous Version | Text Only | Print | Product List | Glossary On
Versions: 1 2 3 4 5 6 7 8 9 10 11 12 13 14 15 16 17 18 19 20 21 22 23 24 25 26 27 28 29 30 31 32 33 34 35 36 37 38 39 40 41 42 43 44 45 46 47 48 49 50
000
ASUS41 KGYX 232310
RWRGYX
WEATHER ROUNDUP FOR MAINE AND NEW HAMPSHIRE
NATIONAL WEATHER SERVICE GRAY ME
700 PM EDT SUN JUL 23 2017

MEZ002-005-006-010-012-015-018-020-021-024-026-027-029-240000-
MAINE

CITY           SKY/WX    TMP DP  RH WIND       PRES   REMARKS
PORTLAND       FAIR      67  47  48 S8        29.90R
SANFORD          N/A     67  50  54 S3        29.90S
BAR HARBOR     FAIR      65  45  48 SW10      29.90R
WISCASSET      FAIR      69  50  50 S6        29.92R
ROCKLAND       FAIR      65  46  50 S7        29.91R
FRYEBURG       FAIR      72  55  55 SE9       29.88R
LEWISTONAUBURN FAIR      70  50  49 S9        29.89S
AUGUSTA        FAIR      72  49  44 S8        29.89R
WATERVILLE     FAIR      69  54  58 CALM      29.87R
BANGOR         PTSUNNY   72  48  42 CALM      29.89R
GREENVILLE       N/A     66  45  46 N6        29.90R
MILLINOCKET    FAIR      73  41  31 NW8       29.90R
HOULTON        FAIR      70  43  37 NW3       29.86R
PRESQUE ISLE   FAIR      70  45  40 NW8       29.87S
FRENCHVILLE    FAIR      65  41  41 NW7       29.87R
CARIBOU        FAIR      68  47  46 N5        29.86R
$$

NHZ002-005-008-009-011-012-014-240000-
NEW HAMPSHIRE

CITY           SKY/WX    TMP DP  RH WIND       PRES   REMARKS
PORTSMOUTH     PTSUNNY   66  49  54 SE9       29.89S
ROCHESTER      FAIR      68  47  46 S5        29.90R
NASHUA         PTSUNNY   73  53  49 SE9       29.90R
MANCHESTER     PTSUNNY   72  51  47 SE10      29.88R
CONCORD        FAIR      72  54  53 S8        29.89R
LACONIA        FAIR      74  57  55 S7        29.88S
PLYMOUTH       FAIR      75  57  52 CALM      29.86F
BERLIN         FAIR      75  47  36 N6        29.89R
WHITEFIELD     PTSUNNY   73  56  54 CALM      29.89R
JAFFREY        FAIR      71  58  63 VRB3      29.91R
KEENE          FAIR      75  59  57 S7        29.88R
LEBANON        FAIR      75  63  66 SE3       29.85F
MT WASHINGTON  MOSUNNY   50  45  81 W13         N/A
$$

VTZ005-007-008-240000-
VERMONT

CITY           SKY/WX    TMP DP  RH WIND       PRES   REMARKS
ST JOHNSBURY     N/A     74  54  49 MISG      29.86R
MONTPELIER     PTSUNNY   72  57  59 CALM      29.92R
BURLINGTON     PTSUNNY   75  52  44 N10       29.87R
$$

MAZ007-012-024-CTZ003-RIZ002-NYZ038-NYZ072-240000-
SOUTHERN NEW ENGLAND AND NY

CITY           SKY/WX    TMP DP  RH WIND       PRES   REMARKS
BOSTON         PTSUNNY   66  53  63 E10       29.91S
WORCESTER      FAIR      69  48  47 E7        29.91R
NANTUCKET      FAIR      67  58  72 NE14      29.89R
PROVIDENCE     FAIR      72  53  51 E9        29.89R
HARTFORD       PTSUNNY   78  60  53 SE10      29.85R
ALBANY         PTSUNNY   76  64  66 NE5       29.82S
NEW YORK CITY  PTSUNNY   78  67  68 SE10      29.83R
$$

ANZ081-ANZ082-ANZ150-NHZ014-MEZ023>029-240000-
COASTAL MARINE OBSERVATIONS

STATION/POSITION TIME  TEMP    WIND        PRES    WAVE
                       AIR SEA DIR/SP/G            HT/PER
                 (UTC) (F)     (DEG/KT/KT) (MB)    (FT/S)
MOUNT DESERT ROC 2300   58                 1012.8R
MATINICUS ROCK   2200   59     210/ 10/ 11 1012.2R
ISLE OF SHOALS   2200   65     140/  8/  8 1012.3R
JEFFREYS LEDGE   2206      64                N/A     3/ 5
CASHES LEDGE BUO 2150   68 65              1012.8    2/ 5
GEORGES BANK BUO 2150   62 61              1010.0    3/ 7
$$

.............KEY..............
   WCI - WIND CHILL
   TC  - TEMPERATURE IN CELSIUS
   VSB - VISIBILITY IN MILES
   HX  - HEAT INDEX
   FAIR- INDICATES FEW OR NO CLOUDS BELOW 12,000 FT, WITH NO
         SIGNIFICANT WEATHER AND/OR OBSTRUCTIONS TO VISIBILITY.






USA.gov is the U.S. government's official web portal to all federal, state and local government web resources and services.